COSMOS 883

Satellite information

Favourite Embed

Satellite Type and Status

PAYLOADIN ORBIT

Key statistics

Satellite COSMOS 883 at a glance.

Uptime

17847

Days in orbit

Revolutions

≈ 13.8

Per day

Orbit

LEO

Low Earth Orbit

Inclination

83.0

Latest

Satellite identification and parameters

Extended collection of information and parameters for COSMOS 883.

Object identification

Identified? True

Debris? False

Object name: COSMOS 883

International designator: 1976-122A

Object number (NORAD): 9610

Object ID (CCSDS): 9610

Country: COMMONWEALTH OF INDEPENDENT STATES (CIS)

Current information (Y/N): Y

RCS size: LARGE

Orbital parameters

Period: 104.626 minutes

Inclination: 82.9508 deg

SMA: 7355.063 km

Apoapsis: 1002.77 km

Periapsis: 951.087 km

RAAN: 78.3757 deg

Eccentricy: 0.0035134

Argument of periapsis: 148.0663 deg

Mean anomaly: 212.2633 deg

Mean motion: 13.76331797 rev/day

Mean motion (dot): 0.00000095 rev/day2

B* drag term: 0.000080657961 1/REarth

Two-line elements (TLE)

Creation date: Oct. 26, 2025, 2:54 a.m.

Reference frame: TEME

Reference center: EARTH

Epoch: Oct. 25, 2025, 10:12 p.m. UTC

TLE line 0: 0 COSMOS 883

TLE line 1: 1 09610U 76122A 25298.92527424 .00000095 00000-0 80658-4 0 9990

TLE line 2: 2 09610 82.9508 78.3757 0035134 148.0663 212.2633 13.76331797452749

Live tracking on map

Real-time ground track for satellite COSMOS 883.

In-orbit conjunctions

A list of the most updated potential collisions computed for object COSMOS 883.

Target Orbit TCA Probability of collision Miss distance Type
COSMOS 2251 DEB LEO 2025-04-14 23:31:57 0.0003521108 795.0 (m) DEBRIS
THORAD AGENA D DEB SSO 2025-02-15 16:14:47 0.0004902637 214.0 (m) DEBRIS
COSMOS 778 LEO 2025-02-11 04:59:10 0.007153692 95.0 (m) PAYLOAD
THOR AGENA B DEB HEO 2024-09-18 03:01:37 0.002308183 118.0 (m) DEBRIS

Associated space launch

Civilian navigation satellite equivalent to the purely military Parus

COSMOS 883 was lifted into orbit during the mission ‘Kosmos-3M | Tsikada 1’, on board a Kosmos-3M space rocket.

The launch took place on Dec. 15, 1976, 1:59 p.m. from 132/1 (132L).

For more information about the launch, click the button.

Launch to space Kosmos-3M | Tsikada 1
Kosmos-3M | Tsikada 1

Agency: N/A

Status: Launch Successful

Launch date: Dec. 15, 1976, 1:59 p.m. UTC

Rocket: Kosmos-3M

Launch pad: 132/1 (132L)

Location: Plesetsk Cosmodrome, Russian Federation

...

Latest news about this satellite

There are no fresh news available about this satellite. Check back as we update our databases every day.


Newsletter sign-up

Weekly statistics, charts and insights to help you stay on top of the space industry.